User: anonymous   Login
Location: Tyumen
(57.1527°N, 65.5323°E)
Time: 17:00:16
(UTC+05:00)
Language:

ISS - Orbit

View from above orbital plane
View from above orbital plane
View from above satellite
View from above satellite

Ground track
Ground track

The orbit data is extracted from the following two-line orbital elements,

1 25544U 98067A   21267.21567994  .00001839  00000-0  42318-4 0  9994
2 25544  51.6435 213.0833 0003460  47.4035  50.6925 15.48430119303944
Epoch (UTC): 24 September 2021 05:10:34
Eccentricity: 0.0003460
inclination: 51.6435°
perigee height: 419 km
apogee height: 423 km
right ascension of ascending node: 213.0833°
argument of perigee: 47.4035°
revolutions per day: 15.48430119
mean anomaly at epoch: 50.6925°
orbit number at epoch: 30394

The dashed part of the orbit path shows where the satellite is in the earth's shadow,  

DLR